Location: Ash Shall?l al Awwal
(24.0167°N, 32.8667°E)
Time: 19:05:17
(UTC+00:00)

TSX-5 - Pass Details

Date: 02 March 2021
Orbit: 404 x 1321 km, 68.9° (Epoch: 10 April)

Event Time Altitude Azimuth Distance (km) Brightness Sun altitude
Rises 16:18:34 0° 342° (NNW) 2,599 7.4 -6.9°
Reaches altitude 10° 16:20:51 10° 345° (NNW) 1,617 6.4 -7.4°
Maximum altitude 16:24:18 68° 69° (ENE) 457 3.2 -8.2°
Drops below altitude 10° 16:27:24 10° 153° (SSE) 1,455 5.8 -8.9°
Sets 16:29:22 0° 156° (SSE) 2,306 6.8 -9.4°
